FW8155 Weather Reports


Display with metric or nautical units.
time (UTC)temp
F
wind
direction
speed
MPH
gust
MPH
rain 1hr
in
rain 24hr
in
rain mn
in
humidity
%
barometer
mb
20260507114613 42 280 5.0 9.0 0.00 0.00 0.00 64 1011.4
20260507114110 42 264 4.0 9.0 0.00 0.00 0.00 67 1011.3
20260507113607 37 275 4.0 6.0 0.00 0.00 0.00 78 1011.4
20260507113104 35 154 0.0 3.0 0.00 0.00 0.00 80 1011.8
20260507112602 35 173 1.0 3.0 0.00 0.00 0.00 78 1011.6
20260507112059 36 144 2.0 4.0 0.00 0.00 0.00 76 1011.5
20260507111555 37 175 2.0 4.0 0.00 0.00 0.00 75 1011.6
20260507111052 38 175 2.0 3.0 0.00 0.00 0.00 73 1011.6
20260507110549 39 148 0.0 4.0 0.00 0.00 0.00 72 1011.5
20260507110045 39 212 4.0 5.0 0.00 0.00 0.00 71 1011.3
20260507105542 39 189 2.0 5.0 0.00 0.00 0.00 70 1011.4
20260507105038 40 251 1.0 7.0 0.00 0.00 0.00 69 1011.3
20260507104536 41 219 7.0 11.0 0.00 0.00 0.00 68 1011.4
20260507104032 41 199 2.0 12.0 0.00 0.00 0.00 67 1011.4
20260507103528 42 261 9.0 15.0 0.00 0.00 0.00 65 1011.5
20260507103025 41 247 5.0 11.0 0.00 0.00 0.00 65 1011.5
20260507102522 41 253 7.0 13.0 0.00 0.00 0.00 65 1011.4
20260507102018 41 235 12.0 13.0 0.00 0.00 0.00 66 1011.2
20260507101513 40 288 5.0 11.0 0.00 0.00 0.00 68 1011.5
20260507101010 39 182 3.0 10.0 0.00 0.00 0.00 71 1011.4
20260507100507 38 210 5.0 9.0 0.00 0.00 0.00 74 1011.3
20260507100005 37 239 4.0 8.0 0.00 0.00 0.00 76 1011.6
20260507095503 37 231 2.0 7.0 0.00 0.00 0.00 76 1011.4
20260507094959 36 125 0.0 8.0 0.00 0.00 0.00 77 1011.6
20260507094455 36 29 1.0 10.0 0.00 0.00 0.00 76 1011.3
20260507093953 37 217 5.0 5.0 0.00 0.00 0.00 76 1011.6
20260507093450 37 257 2.0 6.0 0.00 0.00 0.00 75 1011.6
20260507092948 37 138 3.0 9.0 0.00 0.00 0.00 75 1011.8
20260507092444 37 166 0.0 7.0 0.00 0.00 0.00 75 1011.8
20260507091941 37 214 3.0 7.0 0.00 0.00 0.00 76 1011.8
20260507091438 36 229 3.0 7.0 0.00 0.00 0.00 77 1011.6
20260507090934 36 242 5.0 7.0 0.00 0.00 0.00 78 1011.8
20260507090430 36 216 3.0 6.0 0.00 0.00 0.00 78 1012.0
20260507085927 36 156 3.0 11.0 0.00 0.00 0.00 78 1012.0
20260507085424 36 196 6.0 6.0 0.00 0.00 0.00 79 1011.9
20260507084921 36 71 2.0 12.0 0.00 0.00 0.00 79 1012.1
20260507084418 35 180 5.0 7.0 0.00 0.00 0.00 79 1012.1
20260507083915 35 161 2.0 7.0 0.00 0.00 0.00 80 1012.2
20260507083411 35 167 3.0 10.0 0.00 0.00 0.00 80 1012.0
20260507082908 35 130 0.0 5.0 0.00 0.00 0.00 80 1012.2
20260507082403 35 180 4.0 9.0 0.00 0.00 0.00 80 1012.2
20260507081901 35 246 1.0 5.0 0.00 0.00 0.00 80 1012.3
20260507081356 35 142 3.0 4.0 0.00 0.00 0.00 80 1012.3
20260507080853 35 170 0.0 4.0 0.00 0.00 0.00 79 1012.5
20260507080349 36 81 2.0 7.0 0.00 0.00 0.00 79 1012.4
20260507075845 36 197 2.0 6.0 0.00 0.00 0.00 79 1012.4
20260507075341 36 235 3.0 7.0 0.00 0.00 0.00 79 1012.8
20260507074838 36 200 3.0 9.0 0.00 0.00 0.00 78 1012.8
20260507074335 36 206 4.0 10.0 0.00 0.00 0.00 78 1012.7
20260507073832 37 216 3.0 10.0 0.00 0.00 0.00 78 1012.8
20260507073329 37 190 5.0 11.0 0.00 0.00 0.00 78 1012.9
20260507072826 37 157 1.0 11.0 0.00 0.00 0.00 78 1013.2
20260507072324 37 248 5.0 9.0 0.00 0.00 0.00 78 1013.2
20260507071821 37 226 5.0 17.0 0.00 0.00 0.00 78 1013.5
20260507071318 37 231 11.0 12.0 0.00 0.00 0.00 78 1013.3
20260507070814 37 222 5.0 23.0 0.00 0.00 0.00 77 1013.2
20260507070312 37 180 7.0 22.0 0.00 0.00 0.00 77 1013.2
20260507065808 37 233 6.0 15.0 0.00 0.00 0.00 77 1013.2
20260507065306 37 203 2.0 22.0 0.00 0.00 0.00 77 1013.3
20260507064802 37 175 1.0 19.0 0.00 0.00 0.00 77 1013.2
20260507064301 38 228 15.0 15.0 0.00 0.00 0.00 76 1013.5
20260507063758 38 180 3.0 17.0 0.00 0.00 0.00 76 1013.6
20260507063255 38 208 9.0 16.0 0.00 0.00 0.00 76 1013.5
20260507062752 38 277 4.0 15.0 0.00 0.00 0.00 76 1013.8
20260507062249 38 240 3.0 14.0 0.00 0.00 0.00 76 1013.6
20260507061747 38 194 5.0 12.0 0.00 0.00 0.00 76 1013.8
20260507061244 38 226 8.0 15.0 0.00 0.00 0.00 76 1013.7
20260507060743 38 235 11.0 29.0 0.00 0.00 0.00 76 1013.7
20260507060239 38 246 7.0 19.0 0.00 0.00 0.00 76 1014.0
20260507055735 38 224 9.0 19.0 0.00 0.05 0.05 76 1013.7
20260507055230 38 189 4.0 20.0 0.00 0.05 0.05 76 1013.8
20260507054727 38 203 9.0 20.0 0.00 0.05 0.05 76 1013.7
20260507054224 38 292 5.0 17.0 0.00 0.05 0.05 76 1013.6
20260507053721 38 227 5.0 18.0 0.00 0.05 0.05 76 1013.8
20260507053219 38 185 6.0 13.0 0.00 0.05 0.05 76 1013.9
20260507052718 38 215 5.0 17.0 0.00 0.05 0.05 76 1013.9
20260507052213 38 162 8.0 16.0 0.00 0.05 0.05 76 1013.8
20260507051712 38 206 4.0 16.0 0.00 0.05 0.05 76 1013.8
20260507051208 39 208 5.0 16.0 0.00 0.05 0.05 75 1013.9
20260507050705 39 223 7.0 17.0 0.00 0.05 0.05 75 1013.9
20260507050202 39 165 5.0 14.0 0.00 0.05 0.05 75 1014.0
20260507045659 39 202 6.0 17.0 0.00 0.05 0.05 75 1014.4
20260507045156 39 209 7.0 17.0 0.00 0.05 0.05 74 1014.3
20260507044652 39 240 4.0 16.0 0.00 0.05 0.05 75 1014.1
20260507044148 39 206 3.0 16.0 0.00 0.05 0.05 75 1014.3
20260507043645 39 180 1.0 13.0 0.00 0.05 0.05 75 1014.3
20260507043142 39 151 3.0 13.0 0.00 0.05 0.05 75 1014.0
20260507042638 39 202 7.0 16.0 0.00 0.05 0.05 75 1014.1
20260507042134 39 206 1.0 7.0 0.00 0.05 0.05 75 1014.4
20260507041631 39 148 3.0 8.0 0.00 0.05 0.05 74 1014.5
20260507041127 39 169 1.0 7.0 0.00 0.05 0.05 74 1014.6
20260507040624 39 244 3.0 7.0 0.00 0.05 0.05 74 1014.5
20260507040121 39 292 3.0 5.0 0.00 0.05 0.05 74 1014.7
20260507035616 39 203 2.0 6.0 0.00 0.05 0.05 73 1014.7
20260507035113 39 173 2.0 5.0 0.00 0.05 0.05 74 1014.8
20260507034610 39 197 0.0 7.0 0.00 0.05 0.05 74 1015.1
20260507034107 38 144 2.0 4.0 0.00 0.05 0.05 75 1015.2
20260507033606 38 161 3.0 4.0 0.00 0.05 0.05 76 1014.8
20260507033102 38 140 3.0 4.0 0.00 0.05 0.05 76 1014.7
20260507032600 37 184 4.0 5.0 0.00 0.05 0.05 77 1015.1
20260507032056 37 180 1.0 3.0 0.00 0.05 0.05 77 1015.3
20260507031552 37 175 2.0 3.0 0.00 0.05 0.05 76 1015.4
20260507031049 37 139 2.0 3.0 0.00 0.05 0.05 76 1015.4
20260507030545 37 180 1.0 3.0 0.00 0.05 0.05 75 1015.3
20260507030044 37 85 0.0 3.0 0.00 0.05 0.05 74 1015.3
20260507025540 38 151 2.0 3.0 0.00 0.05 0.05 73 1015.3
20260507025038 38 154 0.0 3.0 0.00 0.05 0.05 72 1015.3
20260507024536 38 157 1.0 3.0 0.00 0.05 0.05 71 1014.9
20260507024032 38 120 1.0 3.0 0.00 0.05 0.05 70 1014.9
20260507023528 38 192 0.0 5.0 0.00 0.05 0.05 69 1014.9
20260507023026 38 82 0.0 2.0 0.00 0.05 0.05 69 1015.1
20260507022522 38 121 0.0 2.0 0.00 0.05 0.05 68 1014.9
20260507022018 39 199 2.0 2.0 0.00 0.05 0.05 66 1015.1
20260507021514 40 255 3.0 4.0 0.00 0.05 0.05 63 1015.2
20260507021011 41 180 1.0 5.0 0.00 0.05 0.05 61 1015.2
20260507020508 41 111 0.0 2.0 0.00 0.05 0.05 60 1014.9
20260507020004 42 286 2.0 3.0 0.00 0.05 0.05 58 1014.8
20260507015503 43 243 0.0 5.0 0.00 0.05 0.05 56 1015.3
20260507015000 43 212 3.0 6.0 0.00 0.05 0.05 55 1015.2
20260507014456 44 244 3.0 6.0 0.00 0.05 0.05 52 1015.3
20260507013952 45 282 4.0 7.0 0.00 0.05 0.05 52 1015.1
20260507013449 45 235 0.0 7.0 0.00 0.05 0.05 51 1015.2
20260507012947 46 268 5.0 8.0 0.00 0.05 0.05 47 1015.4
20260507012443 47 248 4.0 8.0 0.00 0.05 0.05 46 1015.3
20260507011940 47 229 9.0 14.0 0.00 0.05 0.05 43 1015.2
20260507011437 48 258 5.0 8.0 0.00 0.05 0.05 41 1015.3
20260507010937 48 236 7.0 12.0 0.00 0.05 0.05 41 1015.1
20260507010433 48 301 4.0 13.0 0.00 0.05 0.05 40 1015.4
20260507005930 49 267 8.0 13.0 0.00 0.05 0.05 41 1015.2
20260507005427 49 237 2.0 14.0 0.00 0.05 0.05 42 1015.3
20260507004923 49 192 1.0 16.0 0.00 0.05 0.05 41 1015.1
20260507004420 49 276 5.0 13.0 0.00 0.05 0.05 40 1015.2
20260507003918 49 253 5.0 15.0 0.00 0.05 0.05 40 1015.3
20260507003413 49 245 5.0 15.0 0.00 0.05 0.05 41 1015.2
20260507002908 49 212 5.0 15.0 0.00 0.05 0.05 41 1015.1
20260507002405 50 265 6.0 15.0 0.00 0.05 0.05 39 1015.6
20260507001902 50 203 1.0 9.0 0.00 0.05 0.05 38 1015.4
20260507001359 50 259 7.0 14.0 0.00 0.05 0.05 41 1015.6
20260507000856 50 269 11.0 16.0 0.00 0.05 0.05 39 1015.5
20260507000350 50 302 3.0 14.0 0.00 0.05 0.05 40 1015.7
20260506235847 50 195 3.0 14.0 0.00 0.05 0.05 40 1015.6
20260506235345 49 63 1.0 13.0 0.00 0.05 0.05 40 1015.7
20260506234840 49 257 8.0 15.0 0.00 0.05 0.05 44 1015.6
20260506234338 51 251 10.0 15.0 0.00 0.05 0.05 42 1015.6
20260506233836 49 154 4.0 17.0 0.00 0.05 0.05 42 1015.6
20260506233331 49 227 10.0 12.0 0.00 0.05 0.05 43 1015.8
20260506232829 48 256 8.0 12.0 0.00 0.05 0.05 44 1015.7
20260506232324 50 254 8.0 11.0 0.00 0.05 0.05 43 1015.6
20260506231821 48 214 4.0 15.0 0.00 0.05 0.05 45 1015.7
20260506231319 49 205 4.0 14.0 0.00 0.05 0.05 46 1015.7
20260506230816 52 206 10.0 19.0 0.00 0.05 0.05 42 1015.6
20260506230313 51 168 2.0 11.0 0.00 0.05 0.05 45 1015.7
20260506225809 48 0 4.0 7.0 0.00 0.05 0.05 44 1015.7
20260506225306 48 265 4.0 10.0 0.00 0.05 0.05 43 1015.7
20260506224803 49 265 11.0 15.0 0.00 0.05 0.05 43 1015.7
20260506224300 49 347 3.0 14.0 0.00 0.05 0.05 43 1015.7
20260506223756 51 206 3.0 11.0 0.00 0.05 0.05 40 1015.6
20260506223251 49 184 7.0 10.0 0.00 0.05 0.05 44 1015.6
20260506222748 50 299 6.0 11.0 0.00 0.05 0.05 42 1015.8
20260506222244 51 209 5.0 9.0 0.00 0.05 0.05 41 1016.1
20260506221742 48 233 5.0 17.0 0.00 0.05 0.05 44 1016.1
20260506221240 51 266 4.0 13.0 0.00 0.05 0.05 42 1016.1
20260506220737 51 218 6.0 20.0 0.00 0.05 0.05 41 1015.8
20260506220232 49 277 1.0 6.0 0.00 0.05 0.05 43 1016.2
20260506215729 48 292 3.0 11.0 0.00 0.05 0.05 43 1016.2
20260506215225 48 255 9.0 12.0 0.00 0.05 0.05 43 1016.3
20260506214721 49 275 5.0 11.0 0.00 0.05 0.05 43 1016.4
20260506214218 50 236 8.0 11.0 0.00 0.05 0.05 43 1016.3
20260506213717 51 188 4.0 12.0 0.00 0.05 0.05 42 1016.4
20260506213214 48 306 4.0 11.0 0.00 0.05 0.05 44 1016.4
20260506212711 48 241 3.0 11.0 0.00 0.05 0.05 43 1016.5
20260506212206 48 240 0.0 15.0 0.00 0.05 0.05 45 1016.9
20260506211702 48 270 3.0 13.0 0.00 0.05 0.05 45 1016.9
20260506211158 48 223 4.0 11.0 0.00 0.05 0.05 43 1016.6
20260506210655 48 314 8.0 9.0 0.00 0.05 0.05 43 1017.0
20260506210152 47 218 3.0 6.0 0.00 0.05 0.05 43 1017.1
20260506205649 47 277 10.0 10.0 0.00 0.05 0.05 45 1017.0
20260506205144 47 169 4.0 13.0 0.00 0.05 0.05 44 1017.1
20260506204642 48 235 6.0 18.0 0.00 0.05 0.05 44 1017.3
20260506204138 48 342 5.0 11.0 0.00 0.05 0.05 44 1017.3
20260506203637 47 314 4.0 11.0 0.00 0.05 0.05 44 1017.4
20260506203133 47 236 5.0 7.0 0.00 0.05 0.05 45 1017.4
20260506202632 46 28 3.0 9.0 0.00 0.05 0.05 45 1017.4
20260506202127 47 325 9.0 12.0 0.00 0.05 0.05 45 1017.4
20260506201625 47 252 6.0 7.0 0.00 0.05 0.05 44 1017.7
20260506201121 48 261 0.0 4.0 0.00 0.05 0.05 44 1017.4
20260506200618 47 318 10.0 10.0 0.00 0.05 0.05 45 1017.6
20260506200114 47 284 3.0 5.0 0.00 0.05 0.05 45 1017.9
20260506195611 46 190 4.0 15.0 0.00 0.05 0.05 44 1017.8
20260506195107 47 262 6.0 13.0 0.00 0.05 0.05 44 1017.8
20260506194605 46 183 5.0 11.0 0.00 0.05 0.05 44 1017.9
20260506194101 46 270 2.0 10.0 0.00 0.05 0.05 46 1017.8
20260506193559 46 27 3.0 8.0 0.00 0.05 0.05 45 1017.9
20260506193056 46 29 2.0 7.0 0.00 0.05 0.05 46 1018.1
20260506192553 46 202 4.0 7.0 0.00 0.05 0.05 45 1017.9
20260506192049 47 186 7.0 8.0 0.00 0.05 0.05 43 1018.0
20260506191545 46 85 2.0 12.0 0.00 0.05 0.05 45 1018.2
20260506191041 46 268 5.0 7.0 0.00 0.05 0.05 43 1018.1
20260506190539 46 346 5.0 10.0 0.00 0.05 0.05 46 1018.0
20260506190036 45 337 0.0 7.0 0.00 0.05 0.05 45 1018.2
20260506185533 44 67 3.0 9.0 0.00 0.05 0.05 44 1018.2
20260506185029 45 359 6.0 9.0 0.00 0.05 0.05 46 1018.3
20260506184527 45 4 5.0 13.0 0.00 0.05 0.05 43 1018.3
20260506184024 44 330 5.0 15.0 0.00 0.05 0.05 46 1018.3
20260506183520 45 40 10.0 13.0 0.00 0.05 0.05 48 1018.1
20260506183017 43 125 4.0 5.0 0.00 0.05 0.05 44 1018.3
20260506182514 46 346 11.0 15.0 0.00 0.05 0.05 44 1018.6
20260506182011 44 0 4.0 9.0 0.00 0.05 0.05 45 1018.6
20260506181509 42 12 5.0 10.0 0.00 0.05 0.05 51 1018.6
20260506181006 44 24 6.0 14.0 0.00 0.05 0.05 48 1018.5
20260506180502 44 135 4.0 9.0 0.00 0.05 0.05 45 1018.6
20260506175959 44 125 5.0 10.0 0.00 0.05 0.05 48 1018.5
20260506175455 44 351 5.0 8.0 0.00 0.05 0.05 50 1018.7
20260506174952 43 20 6.0 15.0 0.00 0.05 0.05 46 1018.7
20260506174450 43 9 6.0 10.0 0.00 0.05 0.05 47 1018.7
20260506173946 43 42 7.0 23.0 0.00 0.05 0.05 50 1018.7
20260506173444 43 357 5.0 8.0 0.00 0.05 0.05 48 1018.9
20260506172940 42 234 1.0 5.0 0.00 0.05 0.05 46 1018.8
20260506172438 43 32 9.0 10.0 0.00 0.05 0.05 46 1018.8
20260506171934 43 50 5.0 15.0 0.00 0.05 0.05 48 1018.8
20260506171432 44 6 10.0 12.0 0.00 0.05 0.05 50 1018.8
20260506170930 41 32 6.0 11.0 0.00 0.05 0.05 49 1018.8
20260506170425 41 36 4.0 13.0 0.00 0.05 0.05 52 1018.7
20260506165919 41 1 7.0 12.0 0.00 0.05 0.05 50 1018.9
20260506165417 42 348 5.0 7.0 0.00 0.05 0.05 52 1019.0
20260506164912 41 45 5.0 10.0 0.00 0.05 0.05 51 1018.9
20260506164409 41 10 6.0 11.0 0.00 0.05 0.05 50 1018.9
20260506163908 41 324 4.0 6.0 0.00 0.05 0.05 51 1018.8
20260506163401 41 288 6.0 10.0 0.00 0.05 0.05 53 1018.8
20260506162856 41 355 7.0 13.0 0.00 0.05 0.05 53 1018.9
20260506162355 41 17 7.0 12.0 0.00 0.05 0.05 59 1018.7
20260506161852 40 14 10.0 12.0 0.00 0.05 0.05 55 1018.7
20260506161350 40 57 7.0 13.0 0.00 0.05 0.05 54 1018.7
20260506160847 41 29 15.0 16.0 0.00 0.05 0.05 58 1018.7
20260506160344 39 23 7.0 11.0 0.00 0.05 0.05 58 1018.8
20260506155842 41 45 8.0 12.0 0.00 0.05 0.05 60 1018.5
20260506155338 40 356 9.0 13.0 0.00 0.05 0.05 59 1018.6
20260506153456 40 341 11.0 14.0 0.00 0.05 0.05 62 1018.3
20260506152954 40 4 11.0 24.0 0.00 0.05 0.05 64 1018.5
20260506152450 39 6 8.0 9.0 0.00 0.05 0.05 68 1018.7
20260506151949 39 6 4.0 14.0 0.00 0.05 0.05 70 1018.2
20260506151446 39 48 6.0 10.0 0.00 0.05 0.05 70 1018.5
20260506150943 39 24 9.0 11.0 0.00 0.05 0.05 74 1018.6
20260506150439 37 14 5.0 11.0 0.00 0.05 0.05 73 1018.9
20260506145936 37 16 7.0 11.0 0.00 0.05 0.05 74 1018.3
20260506145432 38 17 6.0 11.0 0.00 0.05 0.05 77 1018.9
20260506144930 37 0 5.0 10.0 0.00 0.05 0.05 77 1018.6
20260506144427 37 51 7.0 11.0 0.00 0.05 0.05 77 1018.6
20260506143925 36 8 5.0 13.0 0.00 0.05 0.05 78 1018.6
20260506143422 36 27 8.0 14.0 0.00 0.05 0.05 77 1018.7
20260506142920 36 1 7.0 13.0 0.00 0.05 0.05 79 1018.7
20260506142418 36 13 9.0 15.0 0.00 0.05 0.05 81 1018.3
20260506141916 36 0 8.0 11.0 0.00 0.05 0.05 83 1018.6
20260506141413 35 7 5.0 26.0 0.00 0.05 0.05 83 1018.3
20260506140911 35 357 5.0 7.0 0.00 0.05 0.05 84 1018.3
20260506140408 34 2 3.0 7.0 0.00 0.05 0.05 85 1018.5
20260506135905 34 3 5.0 5.0 0.02 0.05 0.05 86 1018.7
20260506135402 34 351 4.0 5.0 0.02 0.05 0.05 86 1018.6
20260506134858 33 348 6.0 7.0 0.00 0.04 0.04 86 1018.3
20260506134354 33 0 2.0 8.0 0.00 0.04 0.04 87 1018.2
20260506133851 33 11 4.0 6.0 0.00 0.04 0.04 87 1018.1
20260506133348 33 31 7.0 7.0 0.00 0.04 0.04 87 1018.0
20260506132845 33 5 4.0 8.0 0.00 0.04 0.04 87 1018.1
20260506132342 33 4 4.0 5.0 0.00 0.04 0.04 88 1018.1
20260506131840 33 4 5.0 6.0 0.00 0.04 0.04 88 1017.9
20260506131336 33 352 5.0 7.0 0.00 0.04 0.04 88 1018.1
20260506130834 33 5 5.0 6.0 0.00 0.04 0.04 88 1018.0
20260506130330 33 2 3.0 6.0 0.00 0.04 0.04 89 1018.1
20260506125828 32 357 4.0 6.0 0.00 0.04 0.04 88 1018.0
20260506125326 32 6 4.0 5.0 0.00 0.04 0.04 89 1017.9
20260506124824 32 2 3.0 6.0 0.00 0.04 0.04 89 1017.7
20260506124321 33 7 4.0 5.0 0.00 0.04 0.04 89 1017.7
20260506123818 33 32 3.0 5.0 0.00 0.04 0.04 90 1017.6
20260506123317 33 0 4.0 4.0 0.00 0.04 0.04 90 1017.4
20260506122813 33 319 2.0 4.0 0.00 0.04 0.04 90 1017.6
20260506122310 32 347 4.0 5.0 0.00 0.04 0.04 90 1017.7
20260506121808 32 351 2.0 5.0 0.00 0.04 0.04 90 1017.4
20260506121305 32 5 3.0 4.0 0.00 0.04 0.04 90 1017.4
20260506120802 32 25 3.0 6.0 0.00 0.04 0.04 91 1016.9
20260506120300 32 14 4.0 6.0 0.00 0.04 0.04 91 1017.2
20260506115757 32 41 4.0 8.0 0.00 0.04 0.04 92 1016.9
20260506115255 32 16 7.0 10.0 0.00 0.04 0.04 92 1016.5